EZY1 EGPH-EGKK

Flight info

Callsign EZY1
Flight time N/A
Altitude 33000
Route GOSAM P600 FENIK L612 NAVSO DCT KEPAD L151 DISIT
Aircraft A20N/M-SDE2E3FGHIRWXY/LB1

Departure

Time 2026-04-25 20:11
Airport Edinburgh Airport (EGPH)

Arrival

Time N/A
Airport London Gatwick Airport (EGKK)
Time Latitude Longitude Altitude Speed Heading
2026-04-25 19:52 55.94612 -3.36626 119 ft 0 kts 89°
2026-04-25 19:58 55.94612 -3.36627 119 ft 2 kts 88°
2026-04-25 19:58 55.94611 -3.36658 116 ft 2 kts 88°
2026-04-25 19:59 55.94611 -3.36688 117 ft 2 kts 81°
2026-04-25 19:59 55.94607 -3.36716 116 ft 2 kts 45°
2026-04-25 19:59 55.94598 -3.36727 115 ft 0 kts
2026-04-25 20:01 55.94599 -3.36727 119 ft 0 kts 360°
2026-04-25 20:02 55.94640 -3.36730 119 ft 12 kts 357°
2026-04-25 20:02 55.94746 -3.36742 119 ft 5 kts 343°
2026-04-25 20:02 55.94786 -3.36771 118 ft 7 kts 342°
2026-04-25 20:02 55.94828 -3.36777 119 ft 7 kts 357°
2026-04-25 20:03 55.94877 -3.36784 119 ft 7 kts 346°
2026-04-25 20:03 55.94915 -3.36822 116 ft 7 kts 329°
2026-04-25 20:03 55.94926 -3.36859 117 ft 3 kts 281°
2026-04-25 20:03 55.94916 -3.36929 117 ft 7 kts 237°
2026-04-25 20:04 55.94862 -3.37088 119 ft 23 kts 239°
2026-04-25 20:04 55.94751 -3.37410 116 ft 35 kts 239°
2026-04-25 20:04 55.94627 -3.37772 118 ft 35 kts 238°
2026-04-25 20:04 55.94503 -3.38142 119 ft 35 kts 238°
2026-04-25 20:05 55.94397 -3.38458 117 ft 24 kts 237°
2026-04-25 20:05 55.94311 -3.38709 115 ft 23 kts 238°
2026-04-25 20:05 55.94293 -3.38760 115 ft 0 kts 239°
2026-04-25 20:08 55.94288 -3.38775 117 ft 0 kts 239°
2026-04-25 20:08 55.94282 -3.38795 115 ft 4 kts 245°
2026-04-25 20:08 55.94286 -3.38853 118 ft 6 kts 292°
2026-04-25 20:09 55.94309 -3.38892 116 ft 2 kts 328°
2026-04-25 20:09 55.94320 -3.38904 117 ft 0 kts 328°
2026-04-25 20:10 55.94331 -3.38916 119 ft 7 kts 329°
2026-04-25 20:10 55.94417 -3.38953 114 ft 7 kts 31°
2026-04-25 20:10 55.94439 -3.38901 116 ft 5 kts 58°
2026-04-25 20:10 55.94450 -3.38867 116 ft 0 kts 59°
2026-04-25 20:11 55.94452 -3.38863 115 ft 5 kts 59°
2026-04-25 20:11 55.94654 -3.38262 115 ft 108 kts 59°
2026-04-25 20:11 55.95202 -3.36666 149 ft 188 kts 58°
2026-04-25 20:11 55.95916 -3.34541 827 ft 208 kts 60°
2026-04-25 20:12 55.96616 -3.32217 1845 ft 212 kts 75°
2026-04-25 20:12 55.96475 -3.29862 3396 ft 188 kts 120°
2026-04-25 20:12 55.95482 -3.28388 4331 ft 195 kts 166°
2026-04-25 20:12 55.95029 -3.28244 4564 ft 199 kts 182°
2026-04-25 20:13 55.93000 -3.30080 5834 ft 204 kts 222°
2026-04-25 20:13 55.91913 -3.31720 6118 ft 207 kts 224°
2026-04-25 20:13 55.90826 -3.33423 6269 ft 208 kts 228°
2026-04-25 20:13 55.90161 -3.35658 6314 ft 208 kts 261°
2026-04-25 20:14 55.90177 -3.38214 6356 ft 205 kts 277°
2026-04-25 20:14 55.90400 -3.40744 6884 ft 210 kts 279°
2026-04-25 20:14 55.90660 -3.43301 7260 ft 207 kts 279°
2026-04-25 20:14 55.90935 -3.45829 7311 ft 210 kts 280°
2026-04-25 20:15 55.91204 -3.48414 7300 ft 214 kts 279°
2026-04-25 20:15 55.91493 -3.51262 7251 ft 255 kts 279°
2026-04-25 20:15 55.91818 -3.54542 7486 ft 282 kts 279°
2026-04-25 20:15 55.92178 -3.58117 8350 ft 299 kts 279°
2026-04-25 20:16 55.92560 -3.61689 9388 ft 283 kts 279°
2026-04-25 20:16 55.92944 -3.65083 10041 ft 278 kts 279°
2026-04-25 20:16 55.93323 -3.68504 10262 ft 282 kts 279°
2026-04-25 20:16 55.93712 -3.71932 10284 ft 282 kts 279°
2026-04-25 20:17 55.94123 -3.75452 10317 ft 307 kts 279°
2026-04-25 20:17 55.94559 -3.79372 10828 ft 333 kts 279°
2026-04-25 20:17 55.95015 -3.83468 11852 ft 340 kts 279°
2026-04-25 20:17 55.95469 -3.87649 12927 ft 346 kts 279°
2026-04-25 20:18 55.95938 -3.91893 14043 ft 351 kts 278°
2026-04-25 20:18 55.96389 -3.96202 14769 ft 355 kts 276°
2026-04-25 20:18 55.96508 -4.00615 15161 ft 357 kts 264°
2026-04-25 20:18 55.96011 -4.04919 15263 ft 355 kts 248°
2026-04-25 20:19 55.94749 -4.08684 15515 ft 357 kts 227°
2026-04-25 20:19 55.92779 -4.11416 16415 ft 362 kts 208°
2026-04-25 20:19 55.90389 -4.12830 17495 ft 366 kts 192°
2026-04-25 20:19 55.87828 -4.13204 18465 ft 374 kts 182°
2026-04-25 20:20 55.85203 -4.12976 19253 ft 381 kts 177°
2026-04-25 20:20 55.82545 -4.12471 20056 ft 387 kts 175°
2026-04-25 20:20 55.79852 -4.11894 20858 ft 392 kts 175°
2026-04-25 20:20 55.77122 -4.11347 21649 ft 397 kts 176°
2026-04-25 20:21 55.74360 -4.10862 22423 ft 402 kts 177°
2026-04-25 20:21 55.71554 -4.10434 23162 ft 407 kts 178°
2026-04-25 20:21 55.68754 -4.10052 23892 ft 411 kts 178°
2026-04-25 20:21 55.65887 -4.09687 24500 ft 415 kts 178°
2026-04-25 20:22 55.62996 -4.09330 25113 ft 419 kts 179°
2026-04-25 20:22 55.62012 -4.09210 25318 ft 420 kts 179°
2026-04-25 20:22 55.57135 -4.08612 26307 ft 425 kts 178°
2026-04-25 20:22 55.54171 -4.08246 26872 ft 429 kts 178°
2026-04-25 20:23 55.51185 -4.07871 27190 ft 430 kts 178°
2026-04-25 20:23 55.48249 -4.06794 27235 ft 435 kts 163°
2026-04-25 20:23 55.45460 -4.04667 27221 ft 439 kts 155°
2026-04-25 20:23 55.42783 -4.02051 27236 ft 442 kts 152°
2026-04-25 20:24 55.40150 -3.99249 27233 ft 442 kts 151°
2026-04-25 20:24 55.37520 -3.96426 27237 ft 442 kts 151°
2026-04-25 20:24 55.34877 -3.93657 27237 ft 442 kts 152°
2026-04-25 20:24 55.32215 -3.90955 27240 ft 442 kts 153°
2026-04-25 20:25 55.29540 -3.88311 27242 ft 442 kts 153°
2026-04-25 20:25 55.26848 -3.85701 27240 ft 442 kts 153°
2026-04-25 20:25 55.24152 -3.83115 27238 ft 442 kts 154°
2026-04-25 20:25 55.21394 -3.80756 27243 ft 440 kts 159°
2026-04-25 20:26 55.18541 -3.78810 27253 ft 440 kts 162°
2026-04-25 20:26 55.15644 -3.77093 27241 ft 439 kts 164°
2026-04-25 20:26 55.12731 -3.75476 27235 ft 440 kts 165°
2026-04-25 20:26 55.09810 -3.73875 27245 ft 440 kts 165°
2026-04-25 20:27 55.06899 -3.72262 27238 ft 440 kts 165°
2026-04-25 20:27 55.03987 -3.70622 27254 ft 440 kts 164°
2026-04-25 20:27 55.01075 -3.68957 27248 ft 440 kts 164°
2026-04-25 20:27 54.98176 -3.67283 27243 ft 440 kts 164°
2026-04-25 20:28 54.95273 -3.65599 27232 ft 440 kts 164°
2026-04-25 20:28 54.92365 -3.63910 27244 ft 441 kts 164°
2026-04-25 20:28 54.89460 -3.62225 27240 ft 441 kts 164°
2026-04-25 20:28 54.86545 -3.60538 27241 ft 441 kts 164°
2026-04-25 20:29 54.83634 -3.58858 27243 ft 441 kts 164°
2026-04-25 20:29 54.80719 -3.57178 27247 ft 441 kts 164°
2026-04-25 20:29 54.77807 -3.55504 27242 ft 441 kts 164°
2026-04-25 20:29 54.74893 -3.53831 27245 ft 441 kts 164°
2026-04-25 20:30 54.71982 -3.52163 27242 ft 441 kts 164°
2026-04-25 20:30 54.69064 -3.50493 27229 ft 441 kts 164°
2026-04-25 20:30 54.66147 -3.48826 27237 ft 442 kts 164°
2026-04-25 20:30 54.63227 -3.47160 27236 ft 442 kts 164°
2026-04-25 20:31 54.60304 -3.45495 27236 ft 442 kts 164°
2026-04-25 20:31 54.57419 -3.43854 27239 ft 443 kts 164°
2026-04-25 20:31 54.54436 -3.42161 27236 ft 453 kts 164°
2026-04-25 20:31 54.51483 -3.40489 27234 ft 450 kts 164°
2026-04-25 20:32 54.48490 -3.38791 27236 ft 445 kts 164°
2026-04-25 20:32 54.45596 -3.37151 27239 ft 443 kts 164°
2026-04-25 20:32 54.42632 -3.35477 27231 ft 443 kts 164°
2026-04-25 20:32 54.40690 -3.34382 27236 ft 443 kts 164°
2026-04-25 20:33 54.37759 -3.32732 27232 ft 443 kts 164°
2026-04-25 20:33 54.34824 -3.31083 27236 ft 444 kts 164°
2026-04-25 20:33 54.31892 -3.29437 27235 ft 444 kts 164°
2026-04-25 20:33 54.29951 -3.28348 27234 ft 444 kts 164°
2026-04-25 20:34 54.26024 -3.26150 27236 ft 444 kts 165°
2026-04-25 20:34 54.23090 -3.24511 27236 ft 444 kts 165°
2026-04-25 20:34 54.20156 -3.22873 27219 ft 444 kts 165°
2026-04-25 20:34 54.17224 -3.21239 27232 ft 444 kts 165°
2026-04-25 20:35 54.14282 -3.19602 27231 ft 444 kts 165°
2026-04-25 20:35 54.11343 -3.17970 27233 ft 445 kts 165°
2026-04-25 20:35 54.08400 -3.16338 27232 ft 445 kts 165°
2026-04-25 20:35 54.05452 -3.14705 27226 ft 445 kts 164°
2026-04-25 20:36 54.02506 -3.13075 27221 ft 445 kts 164°
2026-04-25 20:36 53.99560 -3.11448 27221 ft 446 kts 164°
2026-04-25 20:36 53.96610 -3.09820 27219 ft 446 kts 164°
2026-04-25 20:36 53.93661 -3.08196 27216 ft 446 kts 165°
2026-04-25 20:37 53.90709 -3.06573 27214 ft 446 kts 165°
2026-04-25 20:37 53.87752 -3.04949 27214 ft 447 kts 165°
2026-04-25 20:37 53.84795 -3.03329 27211 ft 447 kts 165°
2026-04-25 20:37 53.81839 -3.01710 27208 ft 447 kts 165°
2026-04-25 20:38 53.78881 -3.00093 27211 ft 447 kts 165°
2026-04-25 20:38 53.75923 -2.98479 27213 ft 447 kts 165°
2026-04-25 20:38 53.72965 -2.96867 27211 ft 447 kts 165°
2026-04-25 20:38 53.70009 -2.95259 27198 ft 447 kts 165°
2026-04-25 20:39 53.67046 -2.93649 27212 ft 447 kts 165°
2026-04-25 20:39 53.64087 -2.92043 27214 ft 447 kts 165°
2026-04-25 20:39 53.61124 -2.90438 27215 ft 447 kts 165°
2026-04-25 20:39 53.59165 -2.89378 27215 ft 447 kts 165°
2026-04-25 20:40 53.55198 -2.87235 27218 ft 447 kts 165°
2026-04-25 20:40 53.52240 -2.85639 27218 ft 447 kts 165°
2026-04-25 20:40 53.49279 -2.84045 27219 ft 447 kts 165°
2026-04-25 20:40 53.46315 -2.82451 27221 ft 447 kts 165°
2026-04-25 20:41 53.43352 -2.80860 27224 ft 447 kts 165°
2026-04-25 20:41 53.40384 -2.79268 27220 ft 447 kts 165°
2026-04-25 20:41 53.37423 -2.77682 27221 ft 447 kts 165°
2026-04-25 20:41 53.34458 -2.76097 27222 ft 447 kts 165°
2026-04-25 20:42 53.31495 -2.74516 27221 ft 447 kts 165°
2026-04-25 20:42 53.28532 -2.72936 27222 ft 447 kts 165°
2026-04-25 20:42 53.25569 -2.71360 27220 ft 447 kts 165°
2026-04-25 20:42 53.22606 -2.69784 27221 ft 447 kts 165°
2026-04-25 20:43 53.19643 -2.68212 27218 ft 447 kts 165°
2026-04-25 20:43 53.16673 -2.66638 27218 ft 448 kts 165°
2026-04-25 20:43 53.13705 -2.65067 27216 ft 448 kts 165°
2026-04-25 20:43 53.10734 -2.63498 27211 ft 448 kts 165°
2026-04-25 20:44 53.07767 -2.61932 27210 ft 448 kts 165°